FW8116 Weather Reports


Display with metric or nautical units.
time (UTC)temp
F
wind
direction
speed
MPH
gust
MPH
rain 1hr
in
rain 24hr
in
rain mn
in
humidity
%
barometer
mb
20260507235012 54 0 0.0 1.0 0.00 0.37 0.37 96 1011.0
20260507234534 54 0 0.0 2.0 0.00 0.37 0.37 96 1010.8
20260507234052 54 0 0.0 2.0 0.00 0.37 0.37 96 1010.5
20260507233512 54 0 0.0 2.0 0.00 0.37 0.37 95 1010.4
20260507233028 54 0 0.0 2.0 0.00 0.37 0.37 96 1010.2
20260507232511 54 0 0.0 2.0 0.00 0.37 0.37 96 1010.2
20260507232012 54 0 0.0 2.0 0.00 0.37 0.37 96 1010.2
20260507231535 54 0 0.0 2.0 0.00 0.37 0.37 96 1010.1
20260507231010 54 0 0.0 2.0 0.00 0.37 0.37 96 1010.3
20260507230510 54 0 0.0 2.0 0.00 0.37 0.37 96 1010.1
20260507230028 55 0 0.0 3.0 0.00 0.37 0.37 96 1010.3
20260507225515 55 0 0.0 3.0 0.00 0.37 0.37 96 1010.3
20260507225011 55 0 0.0 3.0 0.00 0.37 0.37 96 1010.1
20260507224540 54 0 0.0 3.0 0.00 0.37 0.37 96 1010.1
20260507224012 54 42 0.0 2.0 0.00 0.37 0.37 96 1010.0
20260507223517 54 224 0.0 2.0 0.00 0.37 0.37 96 1010.1
20260507223028 55 0 0.0 2.0 0.00 0.37 0.37 96 1010.1
20260507222512 54 0 0.0 3.0 0.00 0.37 0.37 96 1010.2
20260507222011 54 0 0.0 3.0 0.00 0.37 0.37 96 1010.4
20260507221530 54 0 0.0 4.0 0.00 0.37 0.37 96 1010.6
20260507221014 54 0 0.0 4.0 0.00 0.37 0.37 96 1010.4
20260507220513 54 232 0.0 5.0 0.00 0.37 0.37 96 1010.4
20260507220038 54 0 0.0 5.0 0.00 0.37 0.37 96 1010.4
20260507215511 54 0 0.0 2.0 0.00 0.37 0.37 96 1010.2
20260507215014 54 0 0.0 2.0 0.00 0.37 0.37 96 1010.3
20260507214536 54 0 0.0 4.0 0.00 0.37 0.37 96 1010.2
20260507214014 54 0 0.0 4.0 0.00 0.37 0.37 96 1010.4
20260507213513 55 0 0.0 4.0 0.00 0.37 0.37 96 1010.3
20260507213033 55 185 0.0 2.0 0.00 0.37 0.37 96 1010.0
20260507212511 55 0 0.0 2.0 0.00 0.37 0.37 96 1009.8
20260507212014 54 163 0.0 2.0 0.00 0.37 0.37 96 1009.9
20260507211529 54 0 0.0 2.0 0.00 0.37 0.37 96 1010.0
20260507211012 54 147 0.0 3.0 0.00 0.37 0.37 96 1009.8
20260507210510 54 0 0.0 3.0 0.00 0.37 0.37 96 1009.9
20260507210029 54 0 0.0 2.0 0.00 0.37 0.37 96 1009.7
20260507205514 55 276 0.0 3.0 0.00 0.37 0.37 96 1009.8
20260507205014 55 0 0.0 4.0 0.00 0.37 0.37 96 1009.5
20260507204528 54 113 0.0 4.0 0.00 0.37 0.37 96 1009.6
20260507204013 55 175 0.0 6.0 0.00 0.37 0.37 96 1009.6
20260507203512 54 227 0.0 6.0 0.00 0.37 0.37 96 1009.7
20260507203032 54 216 0.0 6.0 0.00 0.37 0.37 96 1009.7
20260507202514 55 190 0.0 5.0 0.00 0.37 0.37 96 1009.7
20260507202010 55 0 0.0 4.0 0.01 0.37 0.37 96 1009.6
20260507201531 55 207 0.0 4.0 0.01 0.37 0.37 96 1009.6
20260507201012 55 201 0.0 5.0 0.01 0.37 0.37 96 1009.5
20260507200514 55 149 1.0 5.0 0.01 0.37 0.37 96 1009.4
20260507200029 55 186 0.0 5.0 0.01 0.37 0.37 96 1009.5
20260507195512 55 0 0.0 8.0 0.01 0.42 0.37 96 1009.4
20260507195011 55 0 0.0 8.0 0.01 0.42 0.37 96 1009.4
20260507194530 56 0 1.0 4.0 0.01 0.42 0.37 96 1009.5
20260507194012 56 178 0.0 5.0 0.01 0.42 0.37 96 1009.4
20260507193509 56 0 1.0 5.0 0.01 0.42 0.37 96 1009.7
20260507193031 56 312 0.0 3.0 0.01 0.42 0.37 96 1009.8
20260507192513 55 0 0.0 3.0 0.01 0.42 0.37 96 1009.8
20260507192012 55 0 1.0 7.0 0.00 0.41 0.36 96 1009.8
20260507191530 55 0 1.0 7.0 0.00 0.41 0.36 96 1009.7
20260507191013 56 0 1.0 5.0 0.00 0.41 0.36 96 1009.6
20260507190513 56 282 0.0 4.0 0.00 0.41 0.36 96 1009.4
20260507190030 56 0 0.0 2.0 0.00 0.41 0.36 96 1008.9
20260507185516 56 0 0.0 3.0 0.01 0.43 0.36 96 1009.0
20260507185010 57 0 0.0 4.0 0.02 0.43 0.36 96 1008.8
20260507184530 57 0 0.0 4.0 0.03 0.43 0.36 96 1009.4
20260507184015 57 0 1.0 4.0 0.03 0.43 0.36 96 1009.2
20260507183512 57 0 1.0 3.0 0.03 0.43 0.36 96 1009.1
20260507183028 57 181 0.0 3.0 0.03 0.43 0.36 96 1008.8
20260507182509 57 0 0.0 4.0 0.03 0.43 0.36 96 1008.6
20260507182014 57 241 0.0 4.0 0.03 0.43 0.36 96 1008.8
20260507181530 58 209 0.0 3.0 0.03 0.43 0.36 96 1008.7
20260507181013 58 0 0.0 7.0 0.03 0.43 0.36 96 1008.5
20260507180513 58 0 0.0 7.0 0.04 0.43 0.36 96 1008.6
20260507180028 58 0 0.0 9.0 0.04 0.43 0.36 96 1008.8
20260507175512 58 0 1.0 9.0 0.03 0.42 0.35 96 1009.4
20260507175013 58 227 0.0 10.0 0.03 0.41 0.34 96 1009.8
20260507174540 58 180 0.0 10.0 0.02 0.40 0.33 96 1009.8
20260507174011 58 252 0.0 5.0 0.02 0.40 0.33 96 1009.7
20260507173512 59 0 0.0 5.0 0.02 0.40 0.33 96 1009.0
20260507173033 59 0 0.0 8.0 0.02 0.40 0.33 96 1009.0
20260507172513 59 82 0.0 9.0 0.02 0.40 0.33 96 1008.6
20260507172012 60 259 1.0 9.0 0.02 0.40 0.33 96 1008.5
20260507171535 60 0 0.0 4.0 0.03 0.40 0.33 96 1008.2
20260507171012 61 0 0.0 4.0 0.05 0.40 0.33 96 1008.0
20260507170512 61 0 0.0 2.0 0.05 0.39 0.32 96 1008.1
20260507170041 62 0 0.0 4.0 0.05 0.39 0.32 96 1008.5
20260507165510 63 0 0.0 4.0 0.05 0.39 0.32 95 1008.6
20260507165015 64 0 0.0 5.0 0.04 0.38 0.31 96 1008.4
20260507164533 66 0 1.0 5.0 0.04 0.38 0.31 96 1008.7
20260507164017 67 273 0.0 3.0 0.04 0.38 0.31 97 1008.8
20260507163510 67 0 0.0 3.0 0.04 0.38 0.31 97 1008.8
20260507163029 67 331 0.0 5.0 0.04 0.38 0.31 97 1009.1
20260507162512 67 108 0.0 5.0 0.05 0.38 0.31 97 1009.1
20260507162011 67 0 0.0 3.0 0.05 0.38 0.31 97 1009.1
20260507161528 67 355 0.0 3.0 0.03 0.36 0.29 97 1009.2
20260507161013 67 0 0.0 6.0 0.02 0.35 0.28 97 1009.2
20260507160512 68 0 2.0 6.0 0.02 0.34 0.27 97 1009.2
20260507160033 68 0 0.0 3.0 0.02 0.34 0.27 97 1009.3
20260507155510 68 0 0.0 3.0 0.03 0.34 0.27 98 1009.2
20260507155009 68 0 1.0 3.0 0.03 0.34 0.27 98 1009.2
20260507154528 68 0 0.0 1.0 0.04 0.34 0.27 98 1008.8
20260507154014 68 0 0.0 4.0 0.05 0.34 0.27 97 1008.7
20260507153512 68 0 1.0 4.0 0.06 0.34 0.27 97 1008.8
20260507153031 68 252 0.0 2.0 0.07 0.34 0.27 97 1009.1
20260507152513 68 304 0.0 3.0 0.08 0.33 0.26 97 1009.0
20260507152015 68 143 0.0 3.0 0.08 0.33 0.26 97 1009.0
20260507151530 68 0 0.0 3.0 0.08 0.33 0.26 98 1008.9
20260507151012 68 0 0.0 1.0 0.08 0.33 0.26 98 1009.1
20260507150509 68 0 0.0 1.0 0.07 0.32 0.25 98 1009.2
20260507150033 67 0 0.0 3.0 0.07 0.32 0.25 98 1009.1
20260507145512 67 274 0.0 3.0 0.07 0.31 0.24 98 1009.4
20260507145012 67 265 0.0 4.0 0.07 0.31 0.24 98 1009.5
20260507144530 67 0 0.0 4.0 0.06 0.30 0.23 97 1009.4
20260507144014 67 0 0.0 4.0 0.04 0.28 0.21 97 1009.3
20260507143511 67 0 0.0 3.0 0.03 0.27 0.20 97 1009.3
20260507143034 67 154 0.0 3.0 0.03 0.27 0.20 97 1009.3
20260507142512 67 0 0.0 3.0 0.01 0.25 0.18 98 1009.3
20260507142010 67 0 0.0 2.0 0.01 0.25 0.18 98 1009.3
20260507141531 67 0 0.0 2.0 0.01 0.25 0.18 98 1009.4
20260507141012 67 0 0.0 2.0 0.01 0.25 0.18 98 1009.4
20260507140513 67 190 0.0 3.0 0.01 0.25 0.18 98 1009.4
20260507140032 67 0 0.0 3.0 0.01 0.25 0.18 98 1009.5
20260507135512 67 140 0.0 3.0 0.00 0.24 0.17 98 1009.7
20260507135015 67 0 0.0 3.0 0.00 0.24 0.17 98 1009.9
20260507134531 67 147 0.0 2.0 0.00 0.24 0.17 98 1009.9
20260507134015 67 0 0.0 3.0 0.00 0.24 0.17 98 1009.8
20260507133513 67 0 0.0 4.0 0.00 0.24 0.17 98 1009.7
20260507133030 67 275 1.0 4.0 0.00 0.24 0.17 98 1009.6
20260507132515 67 0 0.0 3.0 0.00 0.24 0.17 98 1009.7
20260507132010 67 0 0.0 2.0 0.00 0.24 0.17 97 1009.5
20260507131535 67 0 0.0 1.0 0.00 0.24 0.17 97 1009.7
20260507131011 67 0 0.0 1.0 0.00 0.24 0.17 97 1009.7
20260507130515 66 198 0.0 1.0 0.00 0.24 0.17 97 1009.7
20260507130032 66 0 0.0 1.0 0.00 0.24 0.17 97 1009.8
20260507125512 66 224 0.0 1.0 0.00 0.24 0.17 98 1010.0
20260507125011 66 0 0.0 1.0 0.00 0.24 0.17 98 1009.7
20260507124528 66 0 0.0 2.0 0.00 0.24 0.17 98 1009.9
20260507124011 66 164 0.0 2.0 0.00 0.24 0.17 97 1009.9
20260507123511 66 0 0.0 1.0 0.00 0.24 0.17 97 1009.9
20260507123030 66 0 0.0 1.0 0.00 0.24 0.17 98 1009.9
20260507122509 66 0 0.0 2.0 0.00 0.24 0.17 97 1009.7
20260507122014 66 0 0.0 2.0 0.00 0.24 0.17 97 1009.9
20260507121528 66 293 0.0 2.0 0.00 0.24 0.17 97 1010.0
20260507121012 66 0 0.0 2.0 0.00 0.24 0.17 97 1010.2
20260507120511 66 279 0.0 2.0 0.00 0.24 0.17 97 1010.1
20260507120038 66 0 0.0 1.0 0.00 0.24 0.17 97 1010.2
20260507115511 66 0 0.0 2.0 0.00 0.24 0.17 97 1010.0
20260507115015 66 0 0.0 2.0 0.00 0.24 0.17 97 1010.3
20260507114532 66 271 0.0 2.0 0.00 0.24 0.17 97 1010.3
20260507114013 66 0 0.0 2.0 0.00 0.24 0.17 97 1010.4
20260507113513 66 0 0.0 3.0 0.00 0.24 0.17 97 1010.4
20260507113030 66 0 0.0 3.0 0.00 0.24 0.17 97 1010.4
20260507112513 66 0 0.0 3.0 0.00 0.24 0.17 97 1010.4
20260507112014 66 0 0.0 3.0 0.00 0.24 0.17 97 1010.2
20260507111530 66 0 0.0 2.0 0.00 0.24 0.17 97 1010.3
20260507111010 66 0 0.0 1.0 0.00 0.24 0.17 97 1010.3
20260507110510 66 161 0.0 1.0 0.00 0.24 0.17 97 1010.2
20260507110030 66 0 0.0 2.0 0.00 0.24 0.17 97 1010.0
20260507105512 66 0 0.0 2.0 0.00 0.24 0.17 97 1010.0
20260507105012 66 0 0.0 1.0 0.00 0.24 0.17 97 1009.8
20260507104527 66 0 0.0 1.0 0.00 0.24 0.17 97 1009.9
20260507104011 66 0 0.0 1.0 0.00 0.24 0.17 97 1009.9
20260507103513 66 0 0.0 1.0 0.00 0.24 0.17 97 1010.0
20260507103033 66 119 0.0 1.0 0.00 0.24 0.17 97 1009.8
20260507102515 65 0 0.0 0.0 0.00 0.24 0.17 97 1009.8
20260507102010 65 0 0.0 1.0 0.01 0.24 0.17 97 1009.8
20260507101531 65 0 0.0 1.0 0.01 0.24 0.17 97 1009.9
20260507101012 65 0 0.0 1.0 0.01 0.24 0.17 97 1009.8
20260507100512 65 0 0.0 1.0 0.01 0.24 0.17 97 1009.9
20260507100035 65 0 0.0 1.0 0.01 0.24 0.17 97 1009.9
20260507095515 65 0 0.0 1.0 0.01 0.24 0.17 97 1009.9
20260507095009 65 0 0.0 1.0 0.01 0.24 0.17 97 1009.9
20260507094528 65 0 0.0 1.0 0.01 0.24 0.17 97 1009.9
20260507094012 65 0 0.0 1.0 0.01 0.24 0.17 97 1009.9
20260507093512 65 0 0.0 2.0 0.01 0.24 0.17 97 1009.9
20260507093030 65 0 0.0 2.0 0.01 0.24 0.17 97 1009.9
20260507092513 65 0 0.0 2.0 0.01 0.24 0.17 97 1009.9
20260507092009 65 0 0.0 1.0 0.00 0.23 0.16 97 1009.9
20260507091531 65 0 0.0 1.0 0.00 0.23 0.16 96 1010.0
20260507091011 65 0 0.0 2.0 0.00 0.23 0.16 96 1010.1
20260507090515 65 0 0.0 2.0 0.00 0.23 0.16 96 1010.2
20260507090036 65 176 0.0 2.0 0.00 0.23 0.16 96 1010.0
20260507085512 65 0 0.0 3.0 0.00 0.23 0.16 96 1010.0
20260507085012 65 0 0.0 3.0 0.00 0.23 0.16 96 1010.2
20260507084528 65 0 0.0 1.0 0.00 0.23 0.16 96 1010.0
20260507084011 65 0 0.0 2.0 0.00 0.23 0.16 96 1010.2
20260507083510 65 0 0.0 2.0 0.00 0.23 0.16 96 1010.3
20260507083029 65 161 0.0 1.0 0.00 0.23 0.16 96 1010.6
20260507082509 65 0 0.0 2.0 0.00 0.23 0.16 96 1010.7
20260507082013 65 0 0.0 2.0 0.00 0.23 0.16 96 1010.7
20260507081541 65 0 0.0 1.0 0.00 0.23 0.16 96 1010.5
20260507081012 65 0 0.0 0.0 0.00 0.23 0.16 96 1010.3
20260507080512 65 0 0.0 0.0 0.00 0.23 0.16 96 1010.3
20260507080029 65 0 0.0 0.0 0.00 0.23 0.16 96 1010.1
20260507075512 65 0 0.0 1.0 0.00 0.23 0.16 96 1010.4
20260507075011 65 0 0.0 1.0 0.00 0.23 0.16 96 1010.4
20260507074546 65 0 0.0 0.0 0.00 0.23 0.16 96 1010.7
20260507074011 65 0 0.0 0.0 0.00 0.23 0.16 96 1010.9
20260507073514 65 0 0.0 0.0 0.00 0.23 0.16 96 1010.8
20260507073030 65 0 0.0 1.0 0.00 0.23 0.16 96 1011.0
20260507072510 65 0 0.0 1.0 0.00 0.23 0.16 96 1010.8
20260507072010 65 0 0.0 0.0 0.00 0.23 0.16 95 1010.8
20260507071530 65 0 0.0 0.0 0.00 0.23 0.16 95 1010.6
20260507071012 65 0 0.0 0.0 0.00 0.23 0.16 95 1010.9
20260507070512 65 0 0.0 0.0 0.00 0.23 0.16 95 1010.7
20260507070028 65 0 0.0 0.0 0.00 0.23 0.16 95 1010.5
20260507065512 65 0 0.0 0.0 0.00 0.23 0.16 95 1010.9
20260507065013 65 0 0.0 0.0 0.00 0.23 0.16 95 1011.2
20260507064530 65 0 0.0 1.0 0.00 0.23 0.16 95 1011.5
20260507064010 65 0 0.0 2.0 0.00 0.23 0.16 95 1011.5
20260507063514 65 0 0.0 2.0 0.01 0.23 0.16 95 1011.7
20260507063032 65 259 0.0 2.0 0.02 0.23 0.16 95 1011.6
20260507062510 65 0 0.0 1.0 0.03 0.23 0.16 94 1011.2
20260507062012 66 0 0.0 1.0 0.05 0.23 0.16 94 1011.0
20260507061533 66 0 0.0 1.0 0.07 0.23 0.16 94 1011.4
20260507061010 66 0 0.0 1.0 0.07 0.23 0.16 94 1011.9
20260507060509 66 0 0.0 1.0 0.09 0.23 0.16 94 1011.6
20260507060030 66 0 0.0 1.0 0.10 0.23 0.16 94 1011.5
20260507055510 66 0 0.0 5.0 0.11 0.23 0.16 94 1011.6
20260507055016 66 0 0.0 5.0 0.12 0.23 0.16 93 1011.5
20260507054527 66 0 1.0 3.0 0.13 0.23 0.16 93 1011.9
20260507054009 66 0 0.0 1.0 0.14 0.23 0.16 93 1011.2
20260507053513 66 0 0.0 1.0 0.14 0.22 0.15 93 1011.2
20260507053030 66 0 0.0 2.0 0.14 0.21 0.14 93 1011.1
20260507052512 67 0 0.0 4.0 0.12 0.19 0.12 92 1011.6
20260507052011 67 0 0.0 4.0 0.10 0.17 0.10 92 1011.9
20260507051530 67 0 0.0 3.0 0.09 0.16 0.09 92 1012.0
20260507051017 67 228 0.0 2.0 0.08 0.15 0.08 91 1011.3
20260507050515 67 0 0.0 2.0 0.07 0.14 0.07 90 1011.1
20260507050032 68 0 0.0 2.0 0.06 0.13 0.06 90 1011.5
20260507045511 68 136 0.0 7.0 0.05 0.12 0.05 89 1011.8
20260507045010 68 0 1.0 8.0 0.04 0.11 0.04 88 1012.5
20260507044529 69 340 2.0 8.0 0.03 0.10 0.03 88 1012.7
20260507044012 69 67 2.0 8.0 0.02 0.09 0.02 87 1012.9
20260507043513 69 0 2.0 7.0 0.00 0.07 0.00 87 1012.9
20260507043032 69 0 1.0 6.0 0.00 0.07 0.00 87 1013.0
20260507042514 69 0 1.0 4.0 0.00 0.07 0.00 87 1013.1
20260507042009 69 273 0.0 3.0 0.00 0.07 0.00 87 1013.1
20260507041530 69 0 0.0 3.0 0.00 0.07 0.00 87 1013.0
20260507041013 69 342 0.0 3.0 0.00 0.07 0.00 87 1012.6
20260507040513 69 0 0.0 1.0 0.00 0.07 0.00 86 1012.5
20260507040029 69 0 0.0 1.0 0.00 0.07 0.00 85 1012.2
20260507035512 70 0 0.0 2.0 0.00 0.07 0.07 85 1012.1
20260507035011 70 0 0.0 2.0 0.00 0.07 0.07 84 1011.8
20260507034530 70 165 0.0 2.0 0.00 0.07 0.07 83 1011.7
20260507034010 70 0 0.0 3.0 0.00 0.07 0.07 83 1011.9
20260507033511 70 0 0.0 3.0 0.00 0.07 0.07 83 1011.8
20260507033028 70 0 0.0 1.0 0.00 0.07 0.07 83 1012.2
20260507032510 70 0 0.0 2.0 0.00 0.07 0.07 83 1012.1
20260507032013 70 0 0.0 2.0 0.00 0.07 0.07 83 1012.1
20260507031528 70 0 0.0 2.0 0.00 0.07 0.07 84 1012.0
20260507031010 70 0 0.0 2.0 0.00 0.07 0.07 85 1012.0
20260507030513 69 0 0.0 2.0 0.00 0.07 0.07 85 1011.7
20260507030030 69 0 0.0 2.0 0.00 0.07 0.07 85 1011.8
20260507025511 69 0 0.0 2.0 0.00 0.07 0.07 86 1011.8
20260507025010 69 0 0.0 1.0 0.00 0.07 0.07 86 1011.7
20260507024534 69 0 0.0 1.0 0.00 0.07 0.07 87 1011.7
20260507024012 69 0 0.0 1.0 0.00 0.07 0.07 87 1011.5
20260507023511 69 0 0.0 1.0 0.00 0.07 0.07 88 1011.4
20260507023032 69 0 0.0 1.0 0.00 0.07 0.07 88 1011.5
20260507022511 69 0 0.0 0.0 0.00 0.07 0.07 88 1011.4
20260507022012 69 0 0.0 0.0 0.00 0.07 0.07 88 1011.3
20260507021529 69 0 0.0 0.0 0.00 0.07 0.07 89 1011.5
20260507021011 69 0 0.0 0.0 0.00 0.07 0.07 89 1011.4
20260507020516 68 0 0.0 0.0 0.00 0.07 0.07 89 1011.4
20260507020031 68 0 0.0 0.0 0.00 0.07 0.07 89 1011.6
20260507015510 68 0 0.0 0.0 0.00 0.07 0.07 89 1011.7
20260507015010 68 0 0.0 0.0 0.00 0.07 0.07 89 1011.5
20260507014542 68 0 0.0 0.0 0.00 0.07 0.07 88 1011.3
20260507014012 68 0 0.0 0.0 0.00 0.07 0.07 88 1011.5
20260507013509 69 0 0.0 0.0 0.00 0.07 0.07 88 1011.6
20260507013028 69 0 0.0 0.0 0.00 0.07 0.07 88 1011.7
20260507012513 69 0 0.0 0.0 0.00 0.07 0.07 88 1011.8
20260507012012 69 0 0.0 0.0 0.00 0.07 0.07 88 1011.5
20260507011533 69 0 0.0 0.0 0.00 0.07 0.07 88 1011.5
20260507011013 69 0 0.0 0.0 0.00 0.07 0.07 88 1011.6
20260507010514 69 0 0.0 0.0 0.00 0.07 0.07 87 1011.6
20260507010034 69 0 0.0 0.0 0.00 0.07 0.07 87 1011.5
20260507005512 69 0 0.0 0.0 0.00 0.07 0.07 87 1011.4
20260507005017 69 0 0.0 0.0 0.00 0.07 0.07 86 1011.4
20260507004530 70 0 0.0 0.0 0.00 0.07 0.07 86 1011.7
20260507004015 70 0 0.0 0.0 0.00 0.07 0.07 86 1011.6
20260507003512 70 0 0.0 0.0 0.00 0.07 0.07 86 1011.5
20260507003027 70 0 0.0 0.0 0.00 0.07 0.07 86 1011.4
20260507002513 70 0 0.0 0.0 0.00 0.07 0.07 86 1011.7
20260507002013 70 0 0.0 0.0 0.00 0.07 0.07 85 1011.7
20260507001529 70 0 0.0 0.0 0.00 0.07 0.07 84 1011.6
20260507001017 71 0 0.0 0.0 0.00 0.07 0.07 83 1011.5
20260507000512 71 0 0.0 0.0 0.00 0.07 0.07 82 1011.6
20260507000036 72 0 0.0 1.0 0.00 0.07 0.07 81 1011.6
20260506235511 72 0 0.0 1.0 0.00 0.07 0.07 80 1011.6